Location: Joffre
(52.3362°N, 113.5373°W)
Time: 11:24:28
(UTC+00:00)

N. Korean satellite - Pass Details

Date: 05 December 2021
Orbit: 447 x 491 km, 97.3° (Epoch: 21 January)

Event Time Altitude Azimuth Distance (km) Brightness Sun altitude
Rises 00:51:41 0° 204° (SSW) 2,526 10.9 -12.7°
Reaches altitude 10° 00:54:15 10° 224° (SW) 1,643 10.3 -13.1°
Maximum altitude 00:56:44 18° 268° (W) 1,231 9.6 -13.4°
Drops below altitude 10° 00:59:11 10° 313° (NW) 1,634 9.6 -13.8°
Sets 01:01:44 0° 333° (NNW) 2,506 10.3 -14.2°
